Regional Weather Roundup
Issued by NWS Newport/Morehead, NC

Current Version | Previous Version | Graphics & Text | Print | Product List | Glossary Off
Versions: 1 2 3 4 5 6 7 8 9 10 11 12 13 14 15 16 17 18 19 20 21 22 23 24 25 26 27 28 29 30 31 32 33 34 35 36 37 38 39 40 41 42 43 44 45 46 47 48 49 50
000 ASUS42 KMHX 210510 RWRMHX WEATHER ROUNDUP FOR EASTERN NORTH CAROLINA NATIONAL WEATHER SERVICE NEWPORT/MOREHEAD CITY NC 100 AM EDT SUN SEP 21 2014 NOTE: "FAIR" INDICATES FEW OR NO CLOUDS BELOW 12,000 FEET WITH NO SIGNIFICANT WEATHER AND/OR OBSTRUCTIONS TO VISIBILITY NCZ015>017-031-032-045>047-102-103-210600- NORTH COAST CITY SKY/WX TMP DP RH WIND PRES REMARKS EDENTON DRIZZLE 70 69 97 N5 29.93F ELIZABETH CITY CLOUDY 72 70 93 NE6 29.93F KITTY HAWK RAIN 73 70 91 E3 29.91F MANTEO CLOUDY 72 69 92 E7 29.91F $$ NCZ045>047-081-094-103-104-210600- CENTRAL COAST CITY SKY/WX TMP DP RH WIND PRES REMARKS FRISCO LGT RAIN 70 70 100 VRB3 29.87F FOG SWANQUARTER N/A 72 N/A N/A NE6 29.85S $$ NCZ095-097-098-100-101-210600- SOUTHERN COAST CITY SKY/WX TMP DP RH WIND PRES REMARKS BEAUFORT HVY RAIN 72 70 93 NE10 29.83F FOG CEDAR ISLAND N/A 73 N/A N/A NE23 29.91F JACKSONVILLE LGT RAIN 70 68 93 N13 29.85F NEWPORT NOT AVBL PINEY ISLAND LGT RAIN 75 71 87 NE17 29.85F WILMINGTON CLOUDY 69 68 96 N9 29.85F $$ NCZ011>013-027>030-043-044-078>080-089-090>093-098-210600- COASTAL PLAIN CITY SKY/WX TMP DP RH WIND PRES REMARKS AHOSKIE CLOUDY 67 65 94 N5 29.96F CLINTON CLOUDY 70 68 93 N5 29.92F ELIZABETHTOWN CLOUDY 70 67 89 CALM 29.91F GOLDSBORO CLOUDY 69 69 98 CALM 29.91F GREENVILLE LGT RAIN 70 68 94 N8 29.95F HAVELOCK RAIN 72 70 93 NE15G24 29.86F KENANSVILLE CLOUDY 69 67 92 N10 29.91F KINSTON RAIN 69 68 97 N10 29.92F NEW BERN CLOUDY 73 70 88 N8 29.88F RICHLANDS CLOUDY 70 64 83 N8G16 29.87F ROANOKE RAPIDS NOT AVBL ROCKY MOUNT CLOUDY 68 65 90 N9 29.96F WASHINGTON CLOUDY 69 68 97 N8 29.92F WHITEVILLE CLOUDY 70 66 88 N3 29.89F $$ AMZ130-135-150-152-154-156-158-170-250-252-270-ANZ085-086-088-633-658-670-210600- MARINE OBSERVATIONS STATION/POSITION TIME TEMP WIND PRES WAVE SWELL AIR SEA DIR/SP/G HT/PER HT/PER (UTC) (F) (DEG/KT/KT) (MB) (FT/S) (FT/S) CHESAPEAKE LIGHT 0400 74 90/ 11/ 11 1015.1 BUOY 44014 0500 77 77 90/ 8/ 10 1013.5 7/10 7/10 DUCK 0500 74 74 80/ 8/ 9 1012.6 2E DUCK 0500 N/A 6/11 2/11 OREGON INLET 0500 73 73 100/ 8/ 13 1012.6 BUOY 44095 0500 74 N/A 8/ 9 2/11 20E OREGON INLET NOT AVBL HATTERAS CG 0500 71 75 50/ 9/ 15 1012.0 DIAMOND BUOY 0500 78 110/ 19/ 25 1010.2 8/ 7 CAPE LOOKOUT 0400 72 30/ 24/ 29 1010.6 BEAUFORT LAB 0500 71 75 30/ 9/ 15 1009.8 30 SE NEW RIVER 0500 75 83 40/ 23/ 27 1008.4 7/ 6 3/ 9 5 SE WRIGHTSVILL 0400 71 80 20/ 19/ 25 N/A BUOY 41002 0449 79 82 180/ 19/ 29 1010.9 8/ 7 BUOY 41004 0500 77 81 360/ 19/ 23 1009.9 8/ 8 3/15 $$

USA.gov is the U.S. government's official web portal to all federal, state and local government web resources and services.